BAW591 EGKK-LYTV

Flight info

Callsign BAW591
Flight time N/A
Altitude 35000
Route ODVIK Y311 DVR UL9 KONAN DCT KOK DCT RITAX DCT KRH DCT UTABA DCT BEMKI DCT ELMEM DCT DIRAB DCT VESAL DCT PEVAL DCT SPL DCT TAZ
Aircraft A320/M-SDE3FGHIRWY/LB1

Departure

Time N/A
Airport London Gatwick Airport (EGKK)

Arrival

Time 2026-04-27 11:29
Airport Tivat Airport (LYTV)
Time Latitude Longitude Altitude Speed Heading
2026-04-27 11:11 42.78607 17.78997 27295 ft 475 kts 124°
2026-04-27 11:11 42.76781 17.82714 26560 ft 472 kts 124°
2026-04-27 11:11 42.74971 17.86397 25993 ft 465 kts 124°
2026-04-27 11:11 42.73179 17.90039 25398 ft 460 kts 124°
2026-04-27 11:12 42.71402 17.93645 24733 ft 457 kts 124°
2026-04-27 11:12 42.69640 17.97215 24130 ft 453 kts 124°
2026-04-27 11:12 42.67896 18.00743 23575 ft 447 kts 124°
2026-04-27 11:12 42.66173 18.04233 22941 ft 442 kts 124°
2026-04-27 11:13 42.64473 18.07673 22390 ft 435 kts 124°
2026-04-27 11:13 42.62821 18.11004 21858 ft 428 kts 124°
2026-04-27 11:13 42.61160 18.14348 21231 ft 425 kts 124°
2026-04-27 11:13 42.59524 18.17651 20731 ft 419 kts 124°
2026-04-27 11:14 42.57907 18.20918 20211 ft 414 kts 124°
2026-04-27 11:14 42.56305 18.24143 19258 ft 410 kts 124°
2026-04-27 11:14 42.54718 18.27325 18267 ft 405 kts 124°
2026-04-27 11:14 42.53142 18.30473 17576 ft 401 kts 124°
2026-04-27 11:15 42.51585 18.33581 16951 ft 398 kts 124°
2026-04-27 11:15 42.50040 18.36664 16419 ft 393 kts 124°
2026-04-27 11:15 42.48509 18.39722 15841 ft 391 kts 124°
2026-04-27 11:15 42.46990 18.42759 15307 ft 387 kts 124°
2026-04-27 11:16 42.45482 18.45767 14744 ft 384 kts 124°
2026-04-27 11:16 42.43987 18.48742 14201 ft 381 kts 124°
2026-04-27 11:16 42.42505 18.51693 13628 ft 378 kts 124°
2026-04-27 11:16 42.41035 18.54620 13063 ft 373 kts 124°
2026-04-27 11:17 42.39582 18.57504 12541 ft 369 kts 124°
2026-04-27 11:17 42.38144 18.60354 12001 ft 365 kts 124°
2026-04-27 11:17 42.36720 18.63181 11479 ft 362 kts 124°
2026-04-27 11:17 42.35311 18.65975 10952 ft 358 kts 123°
2026-04-27 11:18 42.33914 18.68744 10513 ft 352 kts 123°
2026-04-27 11:18 42.32562 18.71419 10386 ft 338 kts 123°
2026-04-27 11:18 42.31255 18.73994 10268 ft 326 kts 124°
2026-04-27 11:18 42.29993 18.76477 10129 ft 315 kts 123°
2026-04-27 11:19 42.28773 18.78879 10015 ft 306 kts 123°
2026-04-27 11:19 42.27577 18.81218 9781 ft 299 kts 124°
2026-04-27 11:19 42.26393 18.83453 9204 ft 296 kts 124°
2026-04-27 11:19 42.25182 18.85688 8648 ft 291 kts 126°
2026-04-27 11:20 42.24000 18.87845 8234 ft 282 kts 126°
2026-04-27 11:20 42.22843 18.89963 7702 ft 279 kts 126°
2026-04-27 11:20 42.21634 18.92003 7175 ft 277 kts 130°
2026-04-27 11:20 42.20362 18.93950 6660 ft 275 kts 133°
2026-04-27 11:21 42.18883 18.95548 6192 ft 270 kts 154°
2026-04-27 11:21 42.17102 18.96050 5847 ft 259 kts 187°
2026-04-27 11:21 42.15466 18.95251 5530 ft 246 kts 214°
2026-04-27 11:21 42.14175 18.93823 5216 ft 236 kts 229°
2026-04-27 11:22 42.13532 18.91888 4874 ft 227 kts 270°
2026-04-27 11:22 42.13914 18.89875 4604 ft 223 kts 298°
2026-04-27 11:22 42.14715 18.88089 4317 ft 223 kts 310°
2026-04-27 11:22 42.15879 18.86734 4044 ft 222 kts 328°
2026-04-27 11:23 42.17214 18.85678 3707 ft 224 kts 335°
2026-04-27 11:23 42.18658 18.84834 3326 ft 228 kts 339°
2026-04-27 11:23 42.20146 18.84069 3082 ft 225 kts 340°
2026-04-27 11:23 42.21582 18.83341 3027 ft 216 kts 340°
2026-04-27 11:24 42.22958 18.82641 2943 ft 208 kts 340°
2026-04-27 11:24 42.24271 18.81972 2881 ft 194 kts 340°
2026-04-27 11:24 42.25493 18.81349 2776 ft 181 kts 340°
2026-04-27 11:24 42.26630 18.80769 2695 ft 169 kts 338°
2026-04-27 11:25 42.27684 18.80231 2615 ft 161 kts 339°
2026-04-27 11:25 42.28718 18.79703 2521 ft 158 kts 338°
2026-04-27 11:25 42.29750 18.79177 2287 ft 157 kts 338°
2026-04-27 11:25 42.30740 18.78671 2067 ft 149 kts 338°
2026-04-27 11:26 42.31698 18.78181 1855 ft 146 kts 336°
2026-04-27 11:26 42.32646 18.77697 1609 ft 145 kts 337°
2026-04-27 11:26 42.33588 18.77215 1441 ft 144 kts 338°
2026-04-27 11:26 42.34520 18.76738 1335 ft 143 kts 337°
2026-04-27 11:27 42.35458 18.76263 1247 ft 145 kts 338°
2026-04-27 11:27 42.36404 18.75771 1044 ft 145 kts 338°
2026-04-27 11:27 42.37348 18.75292 740 ft 145 kts 338°
2026-04-27 11:27 42.38265 18.74738 463 ft 143 kts 328°
2026-04-27 11:28 42.39078 18.73971 237 ft 142 kts 318°
2026-04-27 11:28 42.39814 18.73090 40 ft 139 kts 317°
2026-04-27 11:28 42.40439 18.72357 20 ft 86 kts 319°
2026-04-27 11:28 42.40684 18.72068 18 ft 63 kts 319°
2026-04-27 11:29 42.40919 18.71796 20 ft 12 kts 325°
2026-04-27 11:29 42.40969 18.71812 20 ft 12 kts 45°
2026-04-27 11:29 42.40984 18.71837 19 ft 1 kts 52°
2026-04-27 11:29 42.40991 18.71850 19 ft 0 kts 52°
2026-04-27 11:30 42.40993 18.71853 19 ft 2 kts 50°
2026-04-27 11:30 42.41011 18.71858 19 ft 4 kts 356°
2026-04-27 11:30 42.41039 18.71833 19 ft 6 kts 318°
2026-04-27 11:30 42.41079 18.71785 18 ft 9 kts 319°
2026-04-27 11:31 42.41135 18.71719 18 ft 8 kts 319°
2026-04-27 11:31 42.41167 18.71709 18 ft 3 kts 21°
2026-04-27 11:31 42.41173 18.71743 18 ft 4 kts 107°
2026-04-27 11:31 42.41155 18.71749 18 ft 1 kts 186°
2026-04-27 11:32 42.41151 18.71746 18 ft 0 kts 198°